HORIZONS-3E

Last updated on Mon Sep 07 2026 00:03:00 GMT+0000 (Coordinated Universal Time)

1 43633U 18074B 26249.42683852 -.00000046 00000+0 00000+0 0 9999 2 43633 0.0104 179.2077 0000787 22.0913 106.8936 1.00271991 29158
UTC large
Height (km)
Speed (km/s)
/
Latitude / Longitude
Inclination (degrees)
Orbital Period (minutes)
Azimuth
Elevation
Range (km)
Doppler Factor

Next 0 passes for location: London (51.5072 / 0.1276)

No passes found over London.
HORIZONS-3E